{"data":{"norad_id":51136,"intl_designator":"2022-005AJ","name":"STARLINK-3253","alt_names":[],"object_type":"PAYLOAD","status":"ACTIVE","operator":null,"country":"US","launch_date":"2022-01-19","launch_site_code":"AFETR","launch_vehicle":null,"mission":null,"orbit_class":"UNKNOWN","rcs_meters":null,"size_class":null,"mass_kg":null,"dimensions":null,"purposes":["comms"],"wikipedia_slug":null,"has_3d_model":false,"image_url":null,"decayed_at":null,"tle_current":{"epoch":"2026-05-24T18:03:58.432896Z","epoch_age_seconds":103139,"freshness":"FRESH","line1":"1 51136U 22005AJ  26144.75275964  .00000782  00000+0  67259-4 0  9996","line2":"2 51136  53.2132 317.4561 0001245 101.2735 258.8397 15.08823908240217","mean_motion":15.08823908,"eccentricity":0.0001245,"inclination_deg":53.2132,"raan_deg":317.4561,"arg_perigee_deg":101.2735,"mean_anomaly_deg":258.8397,"bstar":6.7259e-5,"rev_number":24021,"period_min":95.438572544146,"perigee_km":538.93129397532,"apogee_km":540.6538584398,"semimajor_km":6917.9295762076,"source":"CELESTRAK","updated_at":"2026-05-25T13:38:16.913440Z"}}}